Hourly Weather Rumyancevo

Today, 22 April, Thursday

Time Temperature Precipitation Wind Pressure Humidity
00:00 +3°C° 0 mm 3 mps 741 mmHg 93%
01:00 +2°C° 0.1 mm 3 mps 742 mmHg 94%
02:00 +2°C° 0.1 mm 3 mps 742 mmHg 95%
03:00 +2°C° 0 mm 3 mps 742 mmHg 93%
04:00 +2°C° 0 mm 3 mps 742 mmHg 93%
05:00 +2°C° 0 mm 3 mps 742 mmHg 93%
06:00 +2°C° 0 mm 3 mps 743 mmHg 93%
07:00 +3°C° 0 mm 4 mps 743 mmHg 89%
08:00 +5°C° 0 mm 5 mps 743 mmHg 84%
09:00 +6°C° 0 mm 5 mps 744 mmHg 79%
10:00 +7°C° 0 mm 5 mps 744 mmHg 74%
11:00 +9°C° 0 mm 5 mps 744 mmHg 68%
12:00 +10°C° 0 mm 6 mps 744 mmHg 63%
13:00 +12°C° 0 mm 5 mps 744 mmHg 60%
14:00 +12°C° 0 mm 5 mps 744 mmHg 57%
15:00 +13°C° 0 mm 5 mps 744 mmHg 55%
16:00 +13°C° 0 mm 5 mps 744 mmHg 58%
17:00 +12°C° 0 mm 5 mps 744 mmHg 62%
18:00 +12°C° 0 mm 5 mps 744 mmHg 65%
19:00 +10°C° 0 mm 5 mps 744 mmHg 71%
20:00 +10°C° 0 mm 4 mps 744 mmHg 76%
21:00 +8°C° 0 mm 4 mps 744 mmHg 82%
22:00 +7°C° 0 mm 4 mps 744 mmHg 84%
23:00 +7°C° 0 mm 4 mps 744 mmHg 85%

Tomorrow, 23 April, Friday

Time Temperature Precipitation Wind Pressure Humidity
00:00 +7°C° 0 mm 4 mps 744 mmHg 87%
01:00 +6°C° 0 mm 4 mps 744 mmHg 87%
02:00 +6°C° 0 mm 4 mps 744 mmHg 88%
03:00 +6°C° 0 mm 4 mps 744 mmHg 88%
04:00 +6°C° 0 mm 4 mps 744 mmHg 87%
05:00 +6°C° 0 mm 4 mps 744 mmHg 86%
06:00 +6°C° 0 mm 4 mps 744 mmHg 84%
07:00 +7°C° 0 mm 5 mps 744 mmHg 77%
08:00 +9°C° 0 mm 6 mps 744 mmHg 70%
09:00 +11°C° 0 mm 6 mps 744 mmHg 63%
10:00 +12°C° 0 mm 7 mps 744 mmHg 57%
11:00 +14°C° 0 mm 7 mps 743 mmHg 50%
12:00 +15°C° 0 mm 8 mps 743 mmHg 44%
13:00 +15°C° 0 mm 7 mps 743 mmHg 47%
14:00 +14°C° 0 mm 7 mps 743 mmHg 50%
15:00 +14°C° 0 mm 6 mps 742 mmHg 54%
16:00 +14°C° 0.1 mm 6 mps 742 mmHg 55%
17:00 +14°C° 0.1 mm 6 mps 742 mmHg 57%
18:00 +13°C° 0.1 mm 6 mps 741 mmHg 59%
19:00 +12°C° 0.1 mm 5 mps 741 mmHg 65%
20:00 +11°C° 0.1 mm 4 mps 741 mmHg 71%
21:00 +10°C° 0.1 mm 3 mps 740 mmHg 77%
22:00 +8°C° 0.1 mm 4 mps 740 mmHg 80%
23:00 +8°C° 0.1 mm 4 mps 739 mmHg 82%

Day after tomorrow, 24 April, Saturday

Time Temperature Precipitation Wind Pressure Humidity
00:00 +8°C° 0.1 mm 4 mps 738 mmHg 84%
01:00 +7°C° 0.6 mm 5 mps 738 mmHg 87%
02:00 +6°C° 0.6 mm 5 mps 737 mmHg 89%
03:00 +4°C° 0.6 mm 6 mps 737 mmHg 92%
04:00 +3°C° 1.1 mm 5 mps 737 mmHg 93%
05:00 +2°C° 1.1 mm 5 mps 737 mmHg 95%
06:00 +1°C° 1.1 mm 4 mps 738 mmHg 96%
07:00 +3°C° 0.2 mm 4 mps 738 mmHg 89%
08:00 +3°C° 0.2 mm 5 mps 738 mmHg 83%
09:00 +5°C° 0.2 mm 5 mps 738 mmHg 76%
10:00 +6°C° 0.1 mm 5 mps 738 mmHg 69%
11:00 +6°C° 0.1 mm 5 mps 738 mmHg 62%
12:00 +7°C° 0.1 mm 5 mps 738 mmHg 55%
13:00 +8°C° 0.2 mm 5 mps 738 mmHg 53%
14:00 +8°C° 0.2 mm 6 mps 738 mmHg 51%
15:00 +8°C° 0.2 mm 6 mps 738 mmHg 49%
16:00 +8°C° 0.1 mm 5 mps 738 mmHg 50%
17:00 +7°C° 0.1 mm 5 mps 737 mmHg 51%
18:00 +7°C° 0.1 mm 4 mps 737 mmHg 52%
19:00 +6°C° 0.3 mm 4 mps 737 mmHg 59%
20:00 +5°C° 0.3 mm 4 mps 738 mmHg 65%
21:00 +4°C° 0.3 mm 4 mps 738 mmHg 71%
22:00 +4°C° 0.2 mm 4 mps 738 mmHg 74%
23:00 +3°C° 0.2 mm 4 mps 738 mmHg 76%

25 April, Sunday

Time Temperature Precipitation Wind Pressure Humidity
00:00 +3°C° 0.2 mm 4 mps 738 mmHg 79%
01:00 +1°C° 0.1 mm 5 mps 738 mmHg 80%
02:00 +1°C° 0.1 mm 5 mps 739 mmHg 81%
03:00 0°C° 0.1 mm 5 mps 739 mmHg 82%
04:00 0°C° 0 mm 5 mps 739 mmHg 84%
05:00 -1°C° 0 mm 5 mps 740 mmHg 85%
06:00 -1°C° 0 mm 5 mps 740 mmHg 87%
07:00 0°C° 0 mm 5 mps 740 mmHg 81%
08:00 +1°C° 0 mm 6 mps 740 mmHg 75%
09:00 +2°C° 0 mm 6 mps 740 mmHg 69%
10:00 +3°C° 0.1 mm 7 mps 740 mmHg 61%
11:00 +4°C° 0.1 mm 8 mps 741 mmHg 53%
12:00 +5°C° 0.1 mm 9 mps 741 mmHg 45%
13:00 +5°C° 0.1 mm 8 mps 741 mmHg 46%
14:00 +5°C° 0.1 mm 8 mps 741 mmHg 46%
15:00 +5°C° 0.1 mm 8 mps 741 mmHg 47%
16:00 +5°C° 0 mm 7 mps 741 mmHg 48%
17:00 +5°C° 0 mm 6 mps 741 mmHg 50%
18:00 +6°C° 0 mm 5 mps 741 mmHg 52%
19:00 +5°C° 0 mm 4 mps 741 mmHg 57%
20:00 +4°C° 0 mm 4 mps 741 mmHg 62%
21:00 +2°C° 0 mm 3 mps 741 mmHg 68%
22:00 +2°C° 0 mm 3 mps 741 mmHg 71%
23:00 +1°C° 0 mm 3 mps 742 mmHg 75%

26 April, Monday

Time Temperature Precipitation Wind Pressure Humidity
00:00 +1°C° 0 mm 3 mps 742 mmHg 78%
01:00 +1°C° 0 mm 3 mps 742 mmHg 80%
02:00 0°C° 0 mm 3 mps 742 mmHg 82%
03:00 0°C° 0 mm 3 mps 742 mmHg 84%
04:00 +1°C° 0 mm 2 mps 742 mmHg 83%
05:00 +1°C° 0 mm 2 mps 742 mmHg 83%
06:00 -1°C° 0 mm 2 mps 742 mmHg 82%
07:00 +2°C° 0 mm 2 mps 742 mmHg 74%
08:00 +2°C° 0 mm 3 mps 742 mmHg 65%
09:00 +4°C° 0 mm 3 mps 741 mmHg 57%
10:00 +5°C° 0 mm 3 mps 741 mmHg 53%
11:00 +5°C° 0 mm 3 mps 741 mmHg 49%
12:00 +7°C° 0 mm 3 mps 741 mmHg 46%
13:00 +8°C° 0.1 mm 3 mps 740 mmHg 44%
14:00 +8°C° 0.1 mm 3 mps 740 mmHg 43%
15:00 +8°C° 0.1 mm 3 mps 740 mmHg 42%
16:00 +8°C° 0.1 mm 3 mps 739 mmHg 45%
17:00 +7°C° 0.1 mm 3 mps 739 mmHg 48%
18:00 +6°C° 0.1 mm 4 mps 738 mmHg 52%
19:00 +5°C° 0.1 mm 3 mps 738 mmHg 60%
20:00 +5°C° 0.1 mm 2 mps 738 mmHg 67%
21:00 +4°C° 0.1 mm 2 mps 738 mmHg 75%
22:00 +3°C° 0.1 mm 2 mps 738 mmHg 77%
23:00 +3°C° 0.1 mm 2 mps 738 mmHg 78%

27 April, Tuesday

Time Temperature Precipitation Wind Pressure Humidity
00:00 +3°C° 0.1 mm 2 mps 738 mmHg 79%
01:00 +2°C° 0 mm 2 mps 738 mmHg 81%
02:00 +2°C° 0 mm 2 mps 738 mmHg 83%
03:00 +1°C° 0 mm 3 mps 737 mmHg 84%
04:00 +1°C° 0 mm 3 mps 737 mmHg 85%
05:00 0°C° 0 mm 3 mps 737 mmHg 85%
06:00 0°C° 0 mm 3 mps 737 mmHg 86%
07:00 0°C° 0 mm 4 mps 738 mmHg 78%
08:00 +3°C° 0 mm 4 mps 738 mmHg 71%
09:00 +3°C° 0 mm 5 mps 738 mmHg 63%
10:00 +5°C° 0.1 mm 5 mps 738 mmHg 58%
11:00 +5°C° 0.1 mm 6 mps 738 mmHg 52%
12:00 +7°C° 0.1 mm 6 mps 738 mmHg 47%
13:00 +7°C° 0 mm 6 mps 738 mmHg 46%
14:00 +7°C° 0 mm 6 mps 738 mmHg 45%
15:00 +6°C° 0 mm 7 mps 738 mmHg 45%
16:00 +7°C° 0.2 mm 6 mps 738 mmHg 50%
17:00 +5°C° 0.2 mm 6 mps 739 mmHg 56%
18:00 +5°C° 0.2 mm 6 mps 739 mmHg 61%
19:00 +4°C° 0 mm 6 mps 739 mmHg 66%
20:00 +3°C° 0 mm 5 mps 739 mmHg 70%
21:00 +2°C° 0 mm 5 mps 740 mmHg 75%
22:00 +1°C° 0 mm 5 mps 740 mmHg 77%
23:00 +1°C° 0 mm 5 mps 740 mmHg 80%
Show more